Weather in Al-Hofuf

Saudi Arabia     25°22′05″N   49°35′15″E
temp.,
°C
wind,
m/s
gust,
m/s
humid.,
%
clouds,
%
prec.,
mm/h
press.,
hPa
HPBL,
m
20 september, mon
mon2000:00+30ne33260 0.0 100611
03:00+29n33300 0.0 100611
06:00+29n57270 0.0 100874
09:00+36nne68210 0.0 1009770
12:00+41n77140 0.0 10072154
15:00+41n87120 0.0 10053252
18:00+35nne69170 0.0 100694
21:00+30nne44230 0.0 100825
21 september, tue
tue2100:00+29nnw44250 0.0 100719
03:00+28nnw44215 0.0 100626
06:00+28nw57210 0.0 100864
09:00+35nnw78120 0.0 1008781
12:00+39nnw7790 0.0 10062406
15:00+39nnw7790 0.0 10042631
18:00+33nnw44120 0.0 100512
21:00+26sse11350 0.0 100611
22 september, wed
wed2200:00+28sw33300 0.0 100511
03:00+27w44210 0.0 100421
06:00+27wnw56190 0.0 100554
09:00+35nw79130 0.0 1006596
12:00+39nnw6690 0.0 10042377
15:00+39nnw6780 0.0 10032656
18:00+33n44110 0.0 100311
21:00+27se22380 0.0 100411
23 september, thu
thu2300:00+26ssw33390 0.0 100411
03:00+26sw33340 0.0 100311
06:00+27wsw33270 0.0 100412
09:00+36wnw34110 0.0 1005639
12:00+40nnw7980 0.0 10042333
15:00+40nnw7980 0.0 10022794
18:00+34nne45120 0.0 100226
21:00+28ene33260 0.0 100411
24 september, fri
fri2400:00+27ese33270 0.0 100311
03:00+26ssw33260 0.0 100411
06:00+27sw44220 0.0 100517
09:00+35wsw33120 0.0 1006509
12:00+40nnw4570 0.0 10042441
15:00+41n6760 0.0 10022518
18:00+31ene57140 0.0 100454
21:00+26ene33320 0.0 100511